Wetbulb
75.26 74.84 75.08 73.46 61.65 61.18 55.88 58.24 62.12 61.20 60.83 63.75 64.08 62.32 61.27 62.69 60.65 53.57 68.18 71.84 73.34 73.80 75.55 76.31 78.06 77.62 77.28 77.29 77.36 77.33 77.10 77.31 77.34 77.31 77.31 77.35 77.47 77.38 77.48 77.48 77.67 77.65 77.25 76.62 77.17 77.11 76.86 76.47 76.52
72.90 74.23 74.03 69.49 57.96 53.49 54.40 59.91 59.90 61.77 65.71 65.57 63.83 63.30 62.44 60.35 65.74 65.93 68.72 72.99 73.26 73.97 74.13 75.75 77.79 77.91 77.41 77.14 76.96 77.17 77.23 77.08 77.26 77.43 77.40 77.32 77.57 77.84 77.46 77.47 77.12 77.01 76.65 76.90 76.92 76.67 76.61 76.52 76.40
72.34 72.02 67.50 61.89 58.58 52.74 55.70 60.35 61.20 64.16 67.40 65.66 62.48 64.45 63.61 62.29 66.93 68.77 71.98 72.83 73.68 73.45 74.70 75.57 77.55 77.41 77.13 76.93 77.26 77.22 76.99 77.09 77.07 77.16 77.27 77.39 77.34 77.21 77.42 76.86 77.01 76.92 77.25 77.42 77.02 76.91 76.68 76.18 76.07
72.99 71.87 68.42 59.21 57.12 59.58 60.01 60.93 63.94 64.00 63.44 65.19 65.62 62.23 66.05 69.33 69.19 70.96 73.42 74.40 73.44 73.92 74.98 77.28 77.63 77.16 76.77 76.93 76.85 77.36 77.22 77.45 77.34 77.43 77.52 77.39 77.45 77.02 76.72 77.00 77.08 77.11 76.97 76.97 76.64 76.23 75.73 75.75 75.48
68.00 65.63 60.42 57.77 59.10 61.49 63.99 65.03 65.47 64.15 62.73 64.23 66.00 63.26 64.83 69.19 71.63 72.86 72.79 73.95 72.62 73.44 74.77 75.77 77.54 76.95 77.12 77.10 77.43 77.17 77.38 77.25 77.13 77.35 76.85 76.22 76.08 75.92 76.14 76.77 76.89 76.83 76.75 76.67 76.23 75.79 75.73 75.87 75.57
64.41 64.43 58.42 55.11 59.64 62.43 64.45 66.07 66.43 65.52 63.22 65.33 65.14 64.18 64.58 70.27 70.65 72.24 73.63 73.33 73.82 73.39 74.40 74.98 77.20 77.16 77.04 77.41 77.00 77.14 77.23 77.19 77.43 77.14 76.14 75.70 75.59 75.39 75.62 75.89 76.11 76.28 76.12 76.01 76.12 76.09 76.04 75.95 75.87
64.34 61.96 58.62 58.57 59.41 61.74 63.53 67.70 65.56 64.70 62.94 64.73 67.21 62.23 64.66 68.35 69.43 72.58 73.32 73.73 73.53 73.93 73.80 73.56 73.62 73.98 77.20 77.42 77.18 77.23 77.27 77.67 77.00 76.22 75.78 75.56 75.31 75.26 75.31 75.73 76.28 76.06 76.01 76.09 76.12 76.29 76.65 76.86 77.65
66.76 64.39 60.16 60.35 59.49 59.97 65.68 66.69 67.54 64.75 62.90 69.47 68.75 62.24 61.78 66.72 69.64 71.67 73.13 73.07 72.85 72.56 71.98 71.75 73.81 74.20 70.54 74.11 76.63 76.88 77.20 77.06 76.44 76.11 75.89 75.56 75.37 75.15 74.98 76.52 76.78 76.17 76.20 76.34 76.51 76.73 77.98 78.09 78.09
67.88 61.09 58.51 59.23 60.08 61.57 65.74 64.07 66.47 67.00 65.29 68.63 68.95 66.98 67.45 69.24 69.63 69.79 70.57 71.38 71.19 70.66 69.34 72.94 73.51 73.38 69.92 71.94 74.56 76.43 77.00 76.36 75.87 75.18 75.51 75.68 71.92 71.94 73.12 75.12 75.56 75.87 76.15 76.45 76.98 78.00 78.38 78.50 78.59
64.77 59.89 60.53 65.06 63.97 64.31 65.41 64.70 64.48 64.29 64.94 65.76 66.69 67.89 68.87 69.37 68.32 67.04 66.50 65.90 66.74 67.11 70.74 73.11 73.51 71.86 69.92 72.89 72.04 72.32 73.32 72.47 72.32 72.56 72.54 73.08 72.29 71.33 73.43 74.62 77.62 75.75 77.07 78.19 78.65 78.81 78.66 78.76 75.54
64.66 60.52 65.06 65.68 66.86 67.13 64.83 64.86 66.39 63.82 62.09 64.99 64.03 65.66 67.76 68.10 67.68 67.32 66.66 66.29 65.59 66.72 72.05 72.73 72.98 71.47 68.42 69.26 71.26 70.27 70.80 71.57 72.24 72.71 69.01 73.06 74.61 74.30 71.97 68.75 73.29 68.71 73.33 69.31 71.15 73.56 69.27 75.03 74.55
61.99 65.26 66.29 67.54 67.43 66.52 64.99 67.01 65.48 65.64 65.46 68.06 67.49 67.56 67.61 67.16 67.29 67.34 66.62 65.52 66.15 66.51 70.68 69.97 69.93 67.68 67.39 70.13 70.97 69.59 70.16 72.17 74.85 70.33 71.30 69.22 72.17 71.96 69.01 67.87 70.52 68.14 67.83 69.78 71.47 72.37 68.48 68.19 72.92
63.23 65.09 66.73 67.46 66.79 65.62 66.70 66.25 65.29 65.89 68.43 68.70 68.25 67.80 66.80 66.81 67.27 68.28 66.78 66.51 66.27 65.71 66.87 66.80 69.48 68.08 68.89 69.61 69.19 69.75 71.93 74.10 75.00 75.18 71.42 70.47 67.90 72.05 70.80 67.28 68.61 70.43 70.02 68.43 70.05 73.17 67.64 71.22 71.77
65.77 65.32 65.37 66.37 66.11 66.28 64.82 65.05 65.70 66.02 67.98 67.46 67.30 66.30 66.60 66.89 67.64 66.44 65.31 65.67 65.06 67.02 68.14 70.90 71.71 71.51 72.25 72.31 73.11 72.88 69.81 71.53 74.78 74.46 70.11 69.63 70.95 73.93 72.14 69.04 71.08 70.25 70.64 68.32 71.48 73.20 71.69 73.21 72.78
66.06 62.61 64.55 64.73 65.84 65.19 65.88 63.37 63.30 66.21 67.35 66.08 66.14 66.31 67.00 67.38 68.10 66.31 66.07 65.27 65.56 68.31 68.95 70.29 70.60 72.42 72.72 71.49 71.92 72.71 70.36 69.94 73.36 74.50 74.06 73.98 74.50 73.97 74.77 72.39 71.01 71.17 71.79 69.72 73.03 70.85 70.84 70.39 72.94
62.18 61.35 57.30 63.19 65.50 66.25 62.91 55.71 64.74 66.31 65.31 64.40 65.86 66.61 67.12 67.99 67.04 67.42 67.26 65.98 66.48 69.33 68.98 70.38 72.38 72.28 73.15 70.97 71.71 73.62 74.40 72.75 71.32 74.08 74.44 73.69 73.83 73.01 71.81 72.65 73.30 73.61 73.82 71.42 70.46 70.16 70.81 69.29 69.57
59.04 53.64 56.17 57.60 64.05 64.36 60.81 56.56 61.64 64.35 65.78 64.27 65.27 66.11 66.54 66.16 67.49 68.26 67.86 67.09 67.20 69.47 69.59 69.10 70.02 70.64 71.24 71.87 71.34 71.67 72.39 70.12 69.88 72.48 73.74 74.02 74.15 73.61 72.50 71.75 73.28 73.02 72.02 74.48 74.29 73.20 71.27 71.52 71.35
53.89 54.08 56.56 57.28 62.06 63.78 60.67 59.21 62.27 64.21 65.78 64.80 64.81 65.38 65.59 66.92 66.02 67.70 68.26 67.69 69.64 69.78 69.60 68.97 70.03 70.24 69.91 72.48 71.47 71.78 70.01 70.96 70.95 70.27 72.42 74.76 73.88 73.08 72.41 72.00 73.04 73.43 71.75 71.30 72.80 73.23 73.19 71.89 71.21
58.01 56.41 57.10 59.81 63.27 61.09 60.46 59.40 61.78 64.68 64.07 64.24 64.24 64.66 64.90 65.56 67.30 67.82 68.65 68.51 70.25 70.07 69.68 68.88 69.56 70.15 71.97 70.42 69.08 68.88 68.71 70.02 68.78 69.62 73.08 73.63 73.82 73.92 72.61 71.07 72.49 72.68 68.71 67.05 69.71 72.86 70.77 70.71 70.59
59.17 57.33 56.58 59.62 63.39 61.82 60.53 58.60 61.46 64.00 63.81 63.09 64.60 65.09 65.58 65.52 67.38 67.22 67.79 68.12 68.90 70.03 70.35 69.66 69.53 71.39 72.02 71.16 71.20 69.85 69.25 71.39 71.66 71.16 73.70 74.61 74.94 74.63 75.18 74.40 74.23 73.73 72.47 70.06 72.25 70.84 69.30 70.46 70.68
58.07 55.71 55.21 55.88 60.19 62.90 58.96 57.42 59.02 62.20 63.98 66.72 66.05 65.12 66.67 66.08 66.07 66.57 67.59 67.34 68.52 68.95 70.14 71.05 71.18 72.58 72.53 71.51 71.62 72.21 72.72 71.42 72.51 71.89 73.25 73.80 74.35 74.65 73.67 74.00 73.98 73.02 72.47 71.81 71.02 70.56 69.77 67.91 69.54
53.08 59.93 58.16 57.38 56.17 51.62 58.50 49.21 57.72 58.25 60.31 63.97 64.26 64.81 65.92 66.36 67.41 67.47 67.77 67.84 68.11 69.06 70.62 70.98 71.96 73.52 72.49 72.57 72.27 71.13 70.39 68.54 70.60 71.36 71.71 72.42 73.01 72.20 73.01 72.75 72.62 72.83 72.42 71.15 71.28 71.21 69.85 69.31 67.89
58.18 61.34 58.64 58.31 55.84 54.75 54.99 52.58 54.23 58.51 57.66 60.54 62.44 64.43 66.27 66.46 67.52 67.77 68.38 69.51 69.80 70.24 70.48 71.33 71.33 72.52 73.05 72.72 72.38 71.90 70.44 70.33 70.81 69.97 70.93 72.22 71.09 70.03 69.41 68.42 68.22 68.67 68.95 67.47 67.99 66.09 64.98 64.99 63.94
62.82 58.66 56.98 57.18 53.70 48.85 53.64 51.92 51.65 54.36 58.43 59.44 62.36 64.24 65.82 66.79 67.45 68.94 69.88 70.73 70.70 70.95 70.87 71.55 70.97 71.49 73.58 72.40 71.48 70.38 68.70 68.23 67.75 68.29 69.88 70.94 68.77 67.93 67.41 67.19 65.51 65.21 63.93 63.85 64.76 65.16 63.97 63.31 62.76
59.14 54.92 47.48 46.80 47.56 46.63 54.37 51.68 52.88 58.70 60.11 61.14 60.71 63.89 63.28 67.41 67.66 68.39 69.01 69.65 70.35 70.64 71.45 72.08 72.00 72.49 71.31 70.66 69.24 68.72 68.14 68.12 67.28 67.30 69.31 67.71 66.62 66.26 65.24 64.83 63.57 62.27 62.02 61.68 61.32 60.32 60.46 60.84 60.66
54.67 52.19 46.84 42.15 43.23 47.81 53.09 48.61 52.85 60.41 61.96 58.51 58.27 62.28 67.52 68.69 68.37 68.33 68.05 69.80 71.85 72.53 71.38 73.20 70.85 68.66 68.23 67.62 67.73 68.02 67.14 66.60 66.87 65.76 66.28 65.85 64.97 64.36 63.94 62.28 60.70 59.65 59.60 59.73 59.52 58.74 59.13 59.45 58.75
53.75 49.32 54.86 44.55 44.67 43.87 49.62 53.01 58.66 59.59 57.97 58.84 58.18 58.92 67.25 68.56 67.96 67.76 68.85 69.53 70.01 69.90 69.09 68.89 66.90 66.03 65.92 66.43 66.42 66.33 65.43 65.29 64.68 64.66 64.53 63.49 63.34 61.56 60.50 59.74 58.05 57.96 58.67 59.02 58.72 58.42 57.65 59.60 59.63
56.72 55.53 43.79 43.34 38.09 38.61 45.61 47.97 50.19 53.84 53.70 55.93 55.30 59.24 65.99 66.46 66.38 66.23 66.81 67.66 67.61 66.63 65.52 65.48 65.38 64.92 65.50 65.14 64.71 64.77 64.62 64.87 63.64 63.22 62.21 61.48 60.73 58.83 58.58 57.39 57.25 59.62 59.59 59.67 60.24 59.45 58.27 58.94 59.57
51.34 51.44 46.10 45.06 43.33 38.18 37.84 47.10 56.44 54.25 54.32 54.66 55.57 63.13 63.58 64.65 65.72 65.90 66.52 67.12 66.07 65.74 65.65 65.51 65.39 65.34 65.52 65.61 63.96 64.43 64.41 63.98 63.75 62.02 60.86 59.91 59.71 58.45 57.66 57.42 57.61 59.27 59.67 59.23 58.68 59.85 59.66 60.01 60.66
49.37 48.34 46.72 41.28 41.39 42.33 42.99 50.32 60.68 56.27 56.22 56.90 62.30 61.56 61.73 64.17 64.65 64.72 65.43 66.39 65.78 65.31 64.79 65.35 66.27 66.47 66.65 65.64 63.90 63.79 64.00 62.92 62.26 62.09 62.06 62.37 61.60 60.18 58.22 58.58 59.06 58.71 58.54 58.42 59.29 58.65 60.10 58.45 58.34
MSLP
1009.22 1009.56 1009.08 1008.30 1008.82 1008.14 1007.59 1006.79 1006.01 1005.85 1005.97 1006.25 1006.26 1007.41 1008.90 1009.00 1009.79 1011.88 1012.33 1013.15 1013.81 1014.55 1014.89 1015.19 1015.36 1015.43 1015.63 1015.74 1015.80 1015.91 1016.08 1016.13 1016.09 1016.14 1016.25 1016.29 1016.35 1016.37 1016.53 1016.62 1016.71 1016.86 1017.06 1017.24 1017.38 1017.54 1017.73 1017.86 1018.10
1008.72 1008.71 1008.90 1008.98 1009.23 1008.06 1007.49 1006.34 1005.83 1005.64 1005.77 1006.45 1007.11 1007.89 1008.57 1009.92 1010.13 1011.44 1012.54 1013.17 1013.45 1014.22 1014.83 1015.12 1015.29 1015.44 1015.57 1015.73 1015.90 1016.03 1016.15 1016.15 1016.19 1016.27 1016.41 1016.52 1016.55 1016.64 1016.72 1016.83 1016.98 1017.05 1017.30 1017.58 1017.69 1017.76 1017.92 1018.03 1018.31
1008.88 1008.97 1009.56 1009.51 1009.03 1007.89 1007.01 1006.30 1005.74 1005.51 1005.71 1006.05 1007.20 1007.73 1008.97 1010.22 1010.70 1011.39 1012.51 1013.00 1013.53 1014.31 1014.83 1015.13 1015.25 1015.43 1015.58 1015.80 1015.97 1016.11 1016.19 1016.30 1016.37 1016.53 1016.65 1016.75 1016.86 1016.99 1017.06 1017.20 1017.36 1017.48 1017.69 1017.84 1017.97 1017.97 1018.01 1018.13 1018.34
1009.29 1009.50 1009.87 1009.45 1008.53 1007.18 1006.27 1005.89 1005.41 1005.76 1006.32 1006.73 1007.25 1008.48 1009.41 1009.93 1010.49 1011.53 1012.32 1013.12 1013.75 1014.38 1014.79 1015.04 1015.23 1015.44 1015.63 1015.88 1016.05 1016.16 1016.32 1016.43 1016.57 1016.70 1016.88 1017.05 1017.18 1017.16 1017.20 1017.29 1017.49 1017.75 1018.07 1018.12 1018.15 1018.24 1018.27 1018.28 1018.25
1010.30 1011.88 1010.70 1010.33 1008.53 1006.61 1005.67 1005.32 1005.28 1005.64 1006.58 1007.44 1008.01 1009.30 1009.85 1010.21 1010.61 1011.72 1012.31 1013.09 1013.65 1014.44 1014.73 1015.04 1015.30 1015.52 1015.71 1015.91 1016.15 1016.35 1016.49 1016.62 1016.78 1016.92 1017.17 1017.30 1017.33 1017.33 1017.39 1017.40 1017.57 1017.89 1018.20 1018.33 1018.24 1018.25 1018.29 1018.30 1018.19
1011.55 1013.60 1011.98 1010.04 1007.52 1006.05 1005.32 1005.10 1005.09 1005.51 1006.51 1007.71 1008.67 1009.51 1010.24 1010.44 1011.26 1011.62 1012.28 1013.07 1013.57 1014.26 1014.67 1014.96 1015.42 1015.62 1015.85 1016.08 1016.38 1016.50 1016.63 1016.73 1016.85 1017.03 1017.27 1017.38 1017.41 1017.34 1017.31 1017.40 1017.70 1018.11 1018.50 1018.60 1018.41 1018.30 1018.24 1018.19 1018.20
1011.66 1012.28 1010.78 1009.15 1007.17 1005.94 1005.18 1004.82 1004.74 1005.20 1006.45 1007.73 1008.76 1009.90 1010.57 1010.68 1010.78 1011.55 1012.03 1012.96 1013.62 1014.21 1014.77 1015.26 1015.54 1015.79 1016.03 1016.28 1016.41 1016.53 1016.61 1016.68 1016.82 1017.04 1017.27 1017.39 1017.43 1017.41 1017.51 1017.74 1017.87 1018.01 1018.28 1018.45 1018.50 1018.43 1018.09 1018.21 1018.09
1011.46 1011.78 1010.36 1007.87 1006.41 1005.18 1004.30 1004.14 1003.86 1004.88 1006.20 1007.30 1008.04 1009.70 1010.47 1010.67 1010.69 1011.32 1011.96 1013.01 1013.65 1014.28 1014.60 1015.14 1015.62 1016.05 1016.32 1016.36 1016.39 1016.43 1016.46 1016.58 1016.81 1017.09 1017.30 1017.38 1017.46 1017.81 1018.01 1017.91 1017.93 1017.97 1017.94 1018.01 1018.13 1018.32 1018.15 1017.96 1018.07
1011.56 1011.45 1009.30 1007.27 1006.02 1004.67 1004.07 1004.54 1004.97 1005.22 1005.96 1006.92 1007.67 1008.84 1009.87 1010.41 1010.74 1011.37 1012.41 1013.18 1013.79 1014.23 1014.46 1014.88 1015.48 1015.96 1016.20 1016.33 1016.29 1016.38 1016.47 1016.82 1017.15 1017.37 1017.47 1017.45 1017.91 1018.16 1018.07 1017.97 1017.79 1018.00 1018.27 1018.17 1018.33 1018.47 1018.41 1018.04 1018.12
1010.12 1009.51 1007.28 1005.71 1004.99 1004.12 1004.21 1004.64 1005.01 1005.38 1006.14 1007.38 1008.27 1009.36 1010.00 1010.50 1010.95 1011.45 1012.16 1012.86 1013.30 1013.89 1014.23 1014.70 1015.07 1015.70 1015.92 1015.98 1016.40 1016.53 1016.75 1016.84 1017.06 1017.10 1017.36 1017.87 1018.36 1018.32 1018.38 1018.70 1018.64 1018.55 1018.47 1019.16 1019.07 1018.46 1018.06 1017.75 1017.55
1008.79 1007.83 1005.47 1004.75 1004.18 1004.07 1004.12 1004.45 1004.93 1005.59 1006.39 1007.39 1008.41 1009.35 1009.99 1010.49 1010.93 1011.32 1011.89 1012.35 1012.78 1012.99 1013.59 1014.29 1014.75 1015.15 1015.55 1015.76 1016.33 1016.47 1016.57 1016.90 1016.98 1017.49 1018.62 1019.19 1019.02 1018.84 1019.02 1018.46 1018.78 1018.86 1019.13 1019.87 1019.06 1018.80 1018.19 1017.60 1017.20
1007.80 1006.57 1005.39 1004.29 1003.51 1003.62 1003.78 1004.31 1004.78 1005.13 1006.01 1007.20 1008.30 1009.40 1009.97 1010.37 1010.55 1010.84 1011.46 1012.01 1012.41 1012.63 1013.17 1013.77 1014.24 1014.83 1014.98 1015.44 1015.88 1015.90 1016.25 1016.45 1016.87 1017.67 1018.08 1018.39 1018.78 1019.24 1018.68 1018.82 1018.92 1018.87 1019.47 1019.06 1018.94 1018.19 1018.45 1017.47 1017.05
1006.94 1005.91 1004.42 1003.68 1003.64 1003.78 1004.04 1004.45 1005.06 1005.49 1006.12 1007.18 1008.20 1009.16 1009.81 1010.06 1010.13 1010.25 1010.81 1011.49 1012.05 1012.58 1013.28 1013.51 1013.98 1014.57 1014.71 1015.23 1015.72 1015.65 1015.88 1016.00 1016.02 1017.17 1017.59 1017.50 1018.76 1018.78 1019.45 1020.83 1018.82 1018.74 1019.22 1018.11 1018.71 1018.15 1018.03 1017.46 1017.28
1005.71 1004.71 1004.04 1003.89 1003.89 1004.01 1004.51 1005.01 1005.21 1005.72 1006.22 1007.10 1008.10 1008.99 1009.41 1009.66 1009.72 1010.21 1010.77 1011.54 1011.97 1012.71 1013.19 1013.29 1014.08 1014.47 1014.42 1014.97 1015.36 1015.26 1015.55 1015.70 1015.88 1016.81 1017.37 1017.46 1017.40 1018.49 1020.28 1018.78 1021.06 1020.06 1019.64 1017.95 1018.51 1018.40 1018.46 1018.06 1017.64
1005.57 1004.91 1004.38 1004.34 1004.27 1004.31 1004.92 1005.92 1006.11 1006.05 1006.53 1007.32 1008.13 1008.88 1009.15 1009.23 1009.40 1009.96 1010.64 1011.44 1011.87 1012.67 1013.10 1013.59 1013.97 1014.23 1014.58 1014.76 1014.98 1015.20 1015.30 1015.49 1015.67 1016.06 1016.75 1017.30 1017.04 1016.45 1018.24 1019.18 1019.62 1019.02 1018.83 1018.44 1018.08 1017.45 1017.76 1017.76 1017.42
1006.41 1006.32 1005.90 1005.17 1004.68 1004.82 1005.10 1006.52 1006.46 1006.80 1006.88 1007.71 1008.10 1008.48 1008.80 1008.88 1009.31 1009.76 1010.34 1011.06 1011.75 1012.69 1013.20 1013.50 1013.96 1014.51 1014.80 1014.86 1014.79 1015.26 1015.22 1015.43 1015.67 1016.01 1015.84 1016.02 1016.05 1016.04 1016.14 1016.40 1016.66 1017.09 1016.52 1016.83 1016.91 1017.39 1017.57 1017.52 1017.46
1008.02 1008.01 1007.54 1006.55 1005.45 1005.34 1005.80 1006.92 1006.83 1007.03 1007.39 1007.66 1007.73 1008.10 1008.35 1008.62 1008.96 1009.48 1010.09 1010.85 1011.62 1012.46 1013.14 1013.52 1013.92 1014.39 1014.83 1014.91 1014.84 1014.96 1015.24 1015.30 1014.98 1015.29 1015.76 1015.65 1015.91 1016.05 1016.16 1016.44 1016.45 1016.41 1016.69 1016.97 1017.28 1017.46 1017.72 1018.18 1017.85
1008.67 1008.75 1008.40 1007.67 1005.97 1005.71 1006.43 1006.67 1007.11 1006.83 1007.44 1007.74 1007.89 1007.95 1008.26 1008.43 1008.96 1009.24 1009.76 1010.53 1011.48 1012.21 1012.84 1013.26 1013.83 1014.14 1014.57 1014.90 1015.11 1015.31 1015.40 1015.11 1014.92 1014.98 1015.34 1015.45 1015.62 1015.72 1016.04 1016.52 1016.90 1017.07 1017.40 1017.26 1017.50 1017.68 1017.59 1017.73 1017.64
1007.93 1008.98 1008.95 1008.39 1006.76 1007.08 1007.00 1006.99 1007.46 1007.64 1007.62 1008.21 1008.10 1007.98 1008.06 1008.15 1008.26 1008.74 1009.17 1010.10 1011.17 1011.90 1012.61 1013.03 1013.85 1014.03 1014.30 1014.85 1015.29 1015.58 1015.86 1015.49 1015.26 1014.87 1015.14 1015.34 1015.51 1015.67 1016.35 1016.88 1017.08 1017.19 1017.48 1017.24 1017.19 1017.78 1017.68 1017.58 1017.45
1008.65 1009.41 1009.79 1008.39 1007.03 1007.15 1007.96 1009.33 1008.81 1009.76 1009.77 1010.04 1009.87 1008.04 1007.96 1007.90 1007.93 1008.23 1008.69 1009.60 1010.55 1011.45 1012.12 1012.76 1013.43 1013.91 1014.13 1014.38 1014.77 1015.18 1015.43 1015.54 1015.32 1015.09 1015.23 1015.60 1015.86 1015.89 1016.20 1016.47 1017.09 1017.08 1017.45 1017.58 1017.45 1017.83 1017.71 1017.66 1017.86
1009.14 1008.73 1008.95 1008.75 1007.92 1007.78 1008.05 1009.45 1010.89 1011.46 1010.98 1008.53 1009.25 1010.82 1007.58 1007.27 1007.47 1007.98 1008.38 1009.11 1010.15 1010.89 1011.57 1012.21 1012.78 1013.32 1013.78 1014.22 1014.69 1015.16 1015.31 1015.44 1016.07 1016.21 1016.39 1016.93 1016.84 1017.04 1017.26 1017.29 1017.07 1017.49 1017.46 1017.60 1017.69 1017.53 1017.67 1018.23 1018.49
1007.56 1007.06 1007.53 1007.82 1008.93 1009.10 1009.77 1011.50 1011.44 1012.09 1011.43 1010.63 1010.68 1010.23 1008.96 1007.16 1006.94 1007.23 1007.82 1008.60 1009.57 1010.46 1011.04 1011.52 1012.26 1012.86 1013.29 1013.78 1014.45 1014.99 1015.46 1016.33 1017.35 1017.25 1017.17 1017.43 1017.59 1017.77 1018.21 1017.93 1017.95 1017.71 1018.03 1017.96 1017.93 1017.78 1017.86 1018.26 1018.73
1005.22 1005.37 1006.39 1006.76 1008.30 1009.64 1011.19 1012.55 1010.86 1009.72 1011.74 1010.62 1009.80 1009.76 1008.49 1006.96 1006.57 1006.61 1007.12 1007.78 1008.54 1009.80 1010.60 1011.13 1011.76 1012.64 1013.16 1013.44 1013.91 1014.97 1016.01 1016.98 1017.18 1017.07 1017.19 1017.19 1017.10 1017.45 1018.74 1018.65 1018.65 1018.46 1018.60 1018.83 1018.50 1018.36 1018.32 1018.40 1018.75
1003.83 1005.34 1006.48 1007.24 1008.52 1010.52 1010.97 1011.25 1011.04 1011.22 1009.78 1009.90 1008.55 1008.44 1007.77 1007.14 1006.35 1005.88 1006.11 1007.07 1008.00 1009.06 1010.07 1010.91 1011.85 1012.45 1013.23 1014.23 1014.95 1015.49 1016.10 1017.04 1017.27 1017.24 1017.14 1017.21 1017.61 1017.17 1018.50 1018.89 1018.50 1019.50 1018.67 1018.97 1019.04 1018.88 1018.82 1018.68 1018.70
1004.88 1006.45 1007.54 1008.60 1008.88 1009.84 1010.44 1011.63 1009.15 1008.93 1010.57 1010.75 1010.15 1008.88 1009.05 1007.07 1005.22 1005.71 1005.89 1006.48 1007.29 1008.34 1009.34 1010.60 1012.10 1013.40 1014.40 1014.99 1015.49 1015.85 1016.07 1016.56 1016.83 1017.16 1017.40 1017.51 1018.54 1019.30 1019.48 1019.17 1019.36 1019.52 1019.73 1019.36 1019.13 1019.07 1019.58 1019.99 1019.60
1006.48 1006.71 1006.89 1007.12 1007.51 1008.57 1010.07 1009.83 1008.37 1009.03 1010.20 1009.38 1008.84 1010.59 1007.06 1007.27 1006.31 1006.46 1006.34 1006.92 1008.09 1008.80 1009.34 1011.01 1012.59 1014.05 1015.05 1015.57 1015.99 1016.47 1016.92 1016.97 1017.32 1017.32 1017.66 1018.43 1018.74 1019.20 1019.28 1019.73 1020.27 1019.74 1019.80 1019.72 1019.94 1019.87 1019.82 1020.24 1020.38
1004.52 1004.44 1004.15 1005.06 1005.26 1006.68 1008.40 1008.47 1009.31 1009.32 1009.23 1008.19 1008.69 1009.22 1009.43 1008.37 1007.83 1008.45 1008.88 1009.42 1009.43 1010.18 1011.45 1012.02 1013.28 1014.06 1015.05 1015.81 1016.70 1017.22 1017.38 1017.80 1017.95 1018.06 1018.44 1018.59 1019.11 1019.78 1019.97 1020.28 1020.13 1019.86 1019.63 1020.00 1020.05 1020.40 1020.06 1020.06 1020.00
1003.92 1003.09 1003.27 1004.38 1005.56 1006.57 1007.04 1007.55 1008.28 1009.09 1009.12 1009.43 1009.52 1011.37 1010.50 1010.14 1010.08 1010.66 1011.23 1011.19 1011.14 1011.38 1013.01 1013.58 1014.16 1015.07 1016.05 1016.34 1016.97 1017.29 1017.45 1017.92 1018.34 1018.69 1018.71 1019.26 1019.62 1019.94 1020.34 1020.26 1020.30 1020.19 1020.15 1020.47 1020.49 1020.49 1020.36 1020.48 1020.73
1003.05 1003.51 1003.13 1003.72 1004.81 1005.79 1006.39 1006.89 1006.15 1007.66 1008.55 1009.33 1010.39 1011.72 1012.15 1012.20 1012.63 1012.52 1012.53 1012.55 1012.55 1013.09 1014.24 1014.80 1015.19 1015.90 1016.24 1016.85 1017.05 1017.38 1017.72 1018.07 1018.54 1018.95 1019.18 1019.56 1019.94 1020.36 1020.68 1020.61 1020.56 1020.58 1020.98 1021.07 1020.72 1020.65 1020.78 1020.74 1020.77
1002.15 1002.43 1002.68 1003.82 1004.68 1005.21 1005.93 1007.43 1006.93 1008.71 1010.22 1010.81 1011.56 1012.43 1012.73 1013.48 1014.31 1014.41 1013.70 1013.44 1013.58 1014.16 1014.90 1015.41 1015.97 1016.44 1016.49 1017.21 1017.30 1017.60 1017.84 1018.36 1018.79 1019.23 1019.39 1019.65 1019.86 1020.22 1020.64 1020.92 1020.79 1020.87 1020.97 1020.92 1020.96 1020.83 1020.88 1020.99 1020.70
Wind_Speed
3 4 4 3 5 2 6 2 15 12 12 17 18 16 16 11 4 7 9 19 18 14 10 10 13 13 13 12 12 12 12 12 12 11 12 12 12 13 13 13 14 14 13 12 12 11 10 9 10
2 6 1 1 2 3 2 5 14 12 12 19 20 18 16 15 13 16 11 19 18 14 10 9 13 12 13 13 12 12 12 12 12 12 11 11 12 12 12 12 13 13 13 12 11 10 9 7 7
3 5 2 2 2 4 5 11 11 9 15 12 10 12 8 14 17 6 18 18 18 14 11 11 14 13 14 12 11 12 12 11 12 11 10 11 12 11 11 12 12 12 12 11 10 8 7 5 4
9 4 1 4 1 3 10 9 10 18 18 20 13 15 15 14 13 16 20 21 17 15 11 13 14 13 13 12 12 11 12 11 11 10 10 11 10 10 10 10 10 10 10 9 7 6 5 4 1
9 5 5 4 3 8 10 11 11 14 14 20 16 20 18 14 19 22 20 18 17 13 11 10 13 13 13 12 12 11 11 11 10 10 10 9 8 8 8 8 8 8 8 7 6 5 4 3 3
8 2 3 5 10 7 8 8 10 16 21 19 22 18 8 11 23 19 21 18 16 15 12 11 13 13 13 12 12 10 10 10 10 10 9 8 8 8 7 8 7 6 5 4 4 4 4 4 5
6 3 4 4 10 12 5 8 13 16 21 16 17 16 7 10 11 18 19 19 17 14 11 8 7 10 13 12 13 11 11 11 10 10 9 8 8 8 7 6 6 7 6 5 6 6 7 6 6
5 2 5 3 5 9 8 8 13 21 17 22 21 10 11 9 8 15 17 18 18 14 13 10 7 6 6 6 12 11 11 11 10 10 10 9 9 8 7 6 6 7 8 8 9 9 9 8 7
4 1 6 2 3 10 9 15 12 16 16 19 8 19 15 12 9 12 17 16 15 13 13 12 11 8 7 6 8 10 12 10 9 7 8 7 2 4 7 8 10 9 8 9 7 7 10 12 9
5 2 4 14 10 11 16 13 10 8 12 19 20 20 16 14 8 8 9 11 12 15 14 13 12 9 10 9 6 5 5 4 4 5 6 3 3 4 4 4 2 2 7 9 12 10 11 12 5
2 5 3 7 4 7 15 14 13 10 8 21 23 20 17 14 10 11 12 12 8 11 11 15 13 13 9 7 5 3 3 3 4 5 6 6 5 3 5 3 3 3 7 6 11 10 5 4 6
3 8 10 6 6 10 5 13 10 8 13 22 20 17 14 12 12 12 14 11 10 7 16 14 13 8 9 6 6 6 5 4 4 5 7 6 4 5 7 2 3 3 1 7 8 8 10 4 8
6 9 15 6 13 9 7 10 12 10 23 22 21 17 13 11 10 9 14 13 10 8 14 8 9 11 7 6 4 4 4 4 5 7 9 1 7 6 11 4 4 4 1 7 11 9 8 6 6
8 8 12 10 6 8 11 6 8 6 19 21 19 15 13 10 10 10 10 13 9 10 9 9 8 7 7 4 5 5 4 5 2 6 8 7 3 9 8 7 4 3 8 6 3 8 8 6 4
6 5 9 8 7 11 11 5 5 7 16 18 16 13 12 11 10 12 11 11 10 12 9 8 8 6 6 3 3 5 3 4 3 5 11 14 7 1 12 13 10 14 10 8 10 6 4 3 4
6 6 3 5 2 2 8 5 4 4 12 11 13 12 11 10 12 10 14 11 11 14 11 9 8 7 5 3 3 5 4 4 4 4 5 7 5 2 3 3 4 9 5 4 2 3 4 4 3
6 4 4 7 6 4 5 4 9 4 8 13 14 12 11 8 12 11 12 14 10 15 13 9 8 9 7 6 3 2 5 5 4 3 4 7 7 6 3 3 3 5 5 7 4 3 3 2 4
7 3 3 2 10 15 5 2 5 9 6 15 12 11 10 11 11 14 14 15 15 14 13 9 9 10 8 5 2 1 2 4 3 4 5 7 4 6 4 5 5 6 4 4 5 4 4 3 2
6 3 5 11 19 13 12 8 8 10 7 8 13 13 11 11 12 14 15 16 18 15 10 9 8 8 6 3 2 1 3 4 3 4 5 6 5 5 5 3 4 5 4 0 4 1 4 4 4
9 11 9 18 15 14 11 5 1 9 12 6 14 15 15 11 16 16 15 17 19 17 13 9 9 11 6 5 3 3 2 1 3 2 5 5 6 6 6 5 5 6 5 3 4 3 1 3 4
2 8 10 17 17 4 3 4 8 6 8 11 18 28 15 17 17 18 15 18 17 17 15 12 10 11 7 7 3 1 1 1 6 6 7 9 11 12 9 6 6 6 4 4 3 3 5 3 2
3 16 18 18 12 4 6 3 3 5 5 10 9 19 21 17 18 19 16 19 18 17 16 16 13 12 9 8 3 3 1 4 3 3 5 8 13 15 13 11 8 7 4 5 3 4 3 3 3
9 14 19 14 3 7 6 3 8 4 6 9 23 24 18 12 19 21 19 19 20 19 17 16 16 11 8 10 7 4 7 6 4 2 7 9 9 10 6 6 6 5 4 4 5 5 5 3 4
4 4 6 5 4 5 5 6 8 6 11 16 19 19 2 15 12 22 21 20 18 18 17 16 14 9 8 8 8 10 11 5 4 2 4 8 4 6 4 2 8 1 4 5 4 5 6 5 5
11 9 5 4 2 9 8 2 10 11 11 14 14 20 27 23 20 20 21 20 19 20 20 16 12 8 13 12 12 8 8 7 5 3 2 7 5 3 5 4 5 4 4 6 6 8 8 7 5
12 5 2 6 6 3 4 7 5 12 11 14 26 27 13 15 14 14 9 15 11 6 14 13 15 14 13 11 8 6 4 4 4 4 5 6 6 5 6 6 4 6 6 6 6 5 5 5 5
7 3 12 3 4 3 6 5 8 5 7 10 12 13 7 14 17 17 16 14 15 17 14 18 17 15 13 12 7 5 6 6 6 7 6 6 7 6 6 4 5 5 6 6 6 3 5 3 4
10 12 5 5 2 4 5 5 8 8 7 12 15 8 9 14 15 14 12 13 15 18 16 15 14 14 10 9 6 6 7 7 6 7 9 7 6 5 4 5 4 4 4 3 3 2 2 4 2
6 12 6 4 5 5 3 5 8 15 17 15 10 9 11 13 10 9 10 12 15 15 13 13 13 9 8 5 5 7 7 7 8 5 5 6 6 5 4 3 5 4 2 1 2 1 2 2 1
7 6 5 5 7 3 5 3 11 11 7 5 10 10 10 11 6 6 7 11 13 13 10 9 5 6 7 7 5 6 8 7 7 5 6 6 6 5 5 3 2 2 1 2 1 2 3 2 3
Wind_Direction
257 255 251 337 37 29 69 116 120 116 85 72 68 87 82 34 59 145 124 128 126 122 126 118 118 114 114 112 113 111 109 112 106 105 109 112 115 115 115 111 116 114 113 112 106 106 98 93 90
304 314 91 235 120 87 69 94 89 91 110 89 87 84 70 76 88 120 115 121 123 130 121 117 116 121 119 117 116 119 121 113 111 112 117 115 113 117 113 119 124 120 117 114 110 106 97 90 89
343 63 166 109 309 141 135 101 113 123 92 102 83 88 81 118 130 104 131 130 127 117 120 130 130 126 119 117 120 118 120 119 116 126 127 127 119 113 116 120 119 121 118 116 115 112 107 87 64
352 3 144 58 138 158 121 130 160 92 88 99 104 64 94 109 109 132 126 117 119 121 129 132 133 127 124 123 127 125 131 127 132 126 119 116 116 121 127 127 127 124 123 123 125 126 121 122 110
29 29 10 3 284 123 128 141 114 112 100 95 100 114 107 120 111 125 133 121 121 124 132 130 132 132 131 134 125 129 128 135 132 130 123 127 131 135 137 141 138 139 138 141 149 150 152 163 183
87 145 232 200 124 130 121 135 123 122 118 111 107 110 109 138 128 138 134 132 131 138 137 137 136 137 137 133 130 133 135 142 145 135 137 143 145 152 159 163 160 155 151 168 186 186 199 222 241
86 214 286 282 118 120 184 140 158 127 124 130 123 118 150 129 146 148 143 138 131 130 130 132 142 148 143 139 143 148 151 150 150 146 153 161 162 172 176 173 174 173 178 203 226 228 232 236 252
120 309 273 249 152 113 125 63 131 117 124 131 131 138 142 156 147 124 127 133 134 140 147 150 152 139 142 149 156 164 168 165 162 163 168 176 178 175 183 194 209 201 196 208 230 242 255 247 251
112 205 258 83 349 128 109 88 92 117 138 150 148 136 138 157 148 126 132 138 143 156 156 151 155 158 156 159 178 179 181 168 168 177 188 196 179 218 197 201 205 215 235 242 252 281 288 288 272
141 228 249 151 214 120 105 108 124 130 116 120 122 121 141 138 146 132 123 132 149 157 157 154 160 160 161 171 163 190 196 190 183 193 196 179 198 199 226 318 317 298 291 328 318 294 279 269 261
157 228 202 159 179 100 126 143 141 138 131 129 131 139 146 156 162 161 148 154 158 165 157 156 165 163 175 149 167 185 191 199 196 185 52 28 319 15 68 77 55 328 33 53 333 310 279 231 258
230 227 269 199 197 108 100 118 99 137 130 132 132 145 153 169 173 173 159 154 155 161 149 152 162 153 166 155 176 182 178 209 166 104 114 78 43 54 340 238 99 13 314 46 345 296 288 284 264
235 255 246 131 78 108 129 91 88 92 126 129 135 154 163 182 187 164 147 148 138 144 145 147 137 160 154 147 172 195 170 163 178 123 104 282 142 157 193 40 219 141 275 132 205 260 262 262 260
213 261 100 99 124 110 95 93 99 106 131 136 143 162 173 186 182 134 127 130 137 115 127 115 109 128 121 121 140 125 163 142 43 139 151 177 139 181 174 204 233 66 231 228 269 244 243 26 344
284 250 133 130 166 147 133 33 95 130 132 140 147 169 183 186 159 143 133 145 136 136 132 118 134 120 116 156 130 116 320 71 214 178 159 176 185 219 144 187 172 196 222 205 225 76 46 72 345
24 39 59 300 210 157 99 223 226 331 127 141 157 178 188 189 146 142 141 140 141 137 143 144 151 140 144 205 203 122 206 191 177 233 170 169 169 180 49 48 118 188 212 141 56 70 56 324 351
356 137 248 302 279 170 113 199 250 214 183 168 173 184 179 185 150 141 141 144 132 145 153 162 150 159 173 212 191 219 188 221 179 176 227 174 178 166 111 97 5 1 39 37 18 57 141 230 347
187 162 344 0 285 197 131 194 231 202 181 181 181 180 179 174 156 152 151 150 136 149 164 154 163 164 170 188 194 293 295 280 271 254 180 188 180 156 141 84 87 90 57 62 23 1 27 81 18
124 98 161 313 298 270 213 178 204 212 184 214 188 180 180 178 164 162 158 149 145 156 163 159 160 175 150 156 188 276 250 256 258 258 157 172 160 157 102 87 101 96 107 327 76 311 27 47 9
96 63 318 302 279 282 81 168 51 309 338 63 344 184 181 189 174 167 163 151 155 160 166 167 160 169 165 172 176 179 171 211 232 263 151 136 122 112 122 107 77 70 99 79 61 44 321 60 35
22 145 235 242 287 161 130 51 33 9 341 19 334 329 184 195 167 168 166 160 158 165 167 168 174 169 173 172 173 188 282 47 40 19 31 31 27 38 51 59 77 68 84 97 101 92 68 59 29
192 188 204 227 248 35 15 244 154 96 47 84 251 288 263 200 163 168 170 160 166 173 175 175 174 175 179 173 164 192 176 80 73 39 72 53 45 39 13 42 32 52 31 58 66 56 76 109 50
212 170 207 226 144 95 1 336 278 286 194 168 227 234 240 203 170 171 173 166 173 173 180 181 183 176 187 188 164 103 87 94 99 64 58 75 69 67 35 57 46 48 46 35 66 68 69 89 111
180 169 236 36 75 62 224 122 270 253 207 202 236 244 286 208 179 174 173 172 172 178 177 183 179 176 120 90 84 104 107 108 99 114 130 135 178 113 132 45 86 7 65 50 19 61 67 73 77
64 64 293 346 62 203 168 274 252 207 55 46 0 346 323 269 175 172 174 180 176 178 182 179 157 99 87 100 102 107 117 124 135 108 94 122 100 79 46 72 85 69 31 53 59 62 47 13 27
286 180 228 267 286 154 151 233 273 110 126 91 56 14 299 48 60 57 178 167 109 105 180 129 113 102 100 100 97 84 61 97 91 75 99 106 101 99 94 88 56 91 84 58 39 54 62 42 29
287 315 228 282 297 54 185 160 48 97 126 94 103 139 292 63 55 56 59 70 88 84 74 108 112 110 108 100 81 78 80 63 88 85 86 80 90 95 99 121 114 95 77 60 74 56 66 75 66
198 254 360 335 337 295 216 204 192 190 158 143 173 188 67 59 66 62 68 78 78 86 92 92 93 94 85 101 107 111 113 102 97 106 96 104 105 106 122 112 97 85 99 114 98 49 78 65 358
211 237 243 182 160 193 279 311 185 166 169 176 110 71 54 58 46 81 93 85 86 88 94 97 101 102 114 131 128 128 114 108 115 115 109 106 103 102 100 115 123 109 95 355 43 47 271 260 272
32 4 354 121 280 256 169 307 132 135 119 116 93 81 74 70 56 36 70 103 102 108 110 101 107 121 134 147 142 122 116 117 122 124 119 124 106 115 132 145 120 103 184 156 215 321 33 300 13